Flippin, AR

11:57 AM CST on December 11, 2017 (GMT -0600)
Marion County Regional

Weather History for KFLP - December, 2008

Change the Weather History Date:

Wednesday, December 31, 2008

  Actual Average Record
Temperature  
Mean Temperature 35 °F -  
Max Temperature 42 °F 44 °F 71 °F (2004)
Min Temperature 28 °F 26 °F 12 °F (2000)
Degree Days  
Heating Degree Days 30    
Moisture  
Dew Point 13 °F    
Average Humidity 42    
Maximum Humidity 59    
Minimum Humidity 26    
Precipitation  
Precipitation 0.00 in - - ()
Sea Level Pressure  
Sea Level Pressure 30.38 in    
Wind  
Wind Speed 10 mph (North)    
Max Wind Speed 16 mph    
Max Gust Speed 22 mph    
Visibility 10 miles    
Events      
Averages and records for this station are not official NWS values.
T = Trace of Precipitation, MM = Missing Value Source: NWS Daily Summary

Daily Weather History Graph

Daily Weather History Graph

Search for Another Location

Airport or City:

Trip Planner

Search our weather history database for the weather conditions in past years. The results will help you decide how hot, cold, wet, or windy it might be!

Date:

Astronomy

Dec. 31, 2008 Rise Set
Actual Time 7:21 AM CST 5:05 PM CST
Civil Twilight 6:53 AM CST 5:34 PM CST
Nautical Twilight 6:20 AM CST 6:06 PM CST
Astronomical Twilight 5:49 AM CST 6:37 PM CST
Moon 9:53 AM CST (12/31) 9:09 PM CST (12/31)
Length of Visible Light 10h 41m
Length of Day
9h 44m
Waxing Crescent, 16% of the Moon is Illuminated
Dec 31
Waxing Crescent
Jan 4
First Quarter
Jan 10
Full
Jan 17
Last Quarter
Jan 26
New

Hourly Weather History & Observations

Time (CST) Temp. Windchill Dew Point Humidity Pressure Visibility Wind Dir Wind Speed Gust Speed Precip Events Conditions
12:15 AM 42.8 °F 37.0 °F 21.2 °F 42% 30.21 in 10.0 mi NNW 10.4 mph 17.3 mph N/A   Clear
12:35 AM 42.8 °F 35.8 °F 21.2 °F 42% 30.21 in 10.0 mi NNW 13.8 mph 21.9 mph N/A   Clear
12:55 AM 42.8 °F 37.0 °F 21.2 °F 42% 30.22 in 10.0 mi NNW 10.4 mph 17.3 mph N/A   Clear
1:15 AM 41.0 °F 33.5 °F 21.2 °F 45% 30.23 in 10.0 mi NNW 13.8 mph 20.7 mph N/A   Clear
1:35 AM 41.0 °F 33.9 °F 19.4 °F 42% 30.25 in 10.0 mi NNW 12.7 mph 19.6 mph N/A   Clear
1:55 AM 39.2 °F 31.2 °F 19.4 °F 45% 30.26 in 10.0 mi NNW 13.8 mph 20.7 mph N/A   Clear
2:35 AM 37.4 °F 29.8 °F 19.4 °F 48% 30.29 in 10.0 mi North 11.5 mph 20.7 mph N/A   Clear
2:55 AM 37.4 °F 28.2 °F 17.6 °F 45% 30.31 in 10.0 mi North 16.1 mph 20.7 mph N/A   Clear
3:15 AM 35.6 °F 28.6 °F 15.8 °F 44% 30.32 in 10.0 mi North 9.2 mph - N/A   Clear
3:35 AM 35.6 °F 26.6 °F 15.8 °F 44% 30.32 in 10.0 mi North 13.8 mph 18.4 mph N/A   Clear
3:55 AM 33.8 °F 24.3 °F 12.2 °F 41% 30.34 in 10.0 mi North 13.8 mph 18.4 mph N/A   Clear
4:15 AM 33.8 °F 26.4 °F 14.0 °F 44% 30.34 in 10.0 mi North 9.2 mph - N/A   Clear
4:35 AM 32.0 °F 23.0 °F 12.2 °F 44% 30.35 in 10.0 mi North 11.5 mph 20.7 mph N/A   Clear
4:55 AM 32.0 °F 22.5 °F 12.2 °F 44% 30.37 in 10.0 mi North 12.7 mph 18.4 mph N/A   Clear
5:15 AM 30.2 °F 21.3 °F 12.2 °F 47% 30.37 in 10.0 mi North 10.4 mph 17.3 mph N/A   Clear
5:35 AM 30.2 °F 22.6 °F 12.2 °F 47% 30.38 in 10.0 mi North 8.1 mph - N/A   Clear
5:55 AM 30.2 °F 23.4 °F 12.2 °F 47% 30.39 in 10.0 mi North 6.9 mph - N/A   Clear
6:15 AM 28.4 °F 23.3 °F 14.0 °F 55% 30.40 in 10.0 mi North 4.6 mph - N/A   Clear
6:35 AM 28.4 °F 23.3 °F 14.0 °F 55% 30.41 in 10.0 mi North 4.6 mph - N/A   Clear
6:55 AM 28.4 °F 24.6 °F 14.0 °F 55% 30.42 in 10.0 mi North 3.5 mph - N/A   Clear
7:15 AM 28.4 °F 21.2 °F 15.8 °F 59% 30.43 in 10.0 mi North 6.9 mph - N/A   Clear
7:35 AM 28.4 °F 21.2 °F 14.0 °F 55% 30.44 in 10.0 mi North 6.9 mph - N/A   Clear
7:55 AM 28.4 °F 21.2 °F 15.8 °F 59% 30.45 in 10.0 mi North 6.9 mph - N/A   Clear
8:35 AM 28.4 °F 18.0 °F 15.8 °F 59% 30.47 in 10.0 mi North 12.7 mph 16.1 mph N/A   Clear
8:55 AM 30.2 °F 20.8 °F 15.8 °F 55% 30.47 in 10.0 mi NNW 11.5 mph - N/A   Clear
9:15 AM 30.2 °F 21.9 °F 15.8 °F 55% 30.48 in 10.0 mi NNW 9.2 mph - N/A   Clear
9:35 AM 30.2 °F 20.8 °F 14.0 °F 51% 30.49 in 10.0 mi North 11.5 mph - N/A   Clear
9:55 AM 32.0 °F 24.2 °F 14.0 °F 48% 30.50 in 10.0 mi NNW 9.2 mph - N/A   Clear
10:15 AM 32.0 °F 25.6 °F 14.0 °F 48% 30.50 in 10.0 mi North 6.9 mph - N/A   Clear
10:35 AM 33.8 °F 28.6 °F 12.2 °F 41% 30.49 in 10.0 mi NNW 5.8 mph - N/A   Clear
10:55 AM 33.8 °F 25.8 °F 10.4 °F 38% 30.49 in 10.0 mi North 10.4 mph 19.6 mph N/A   Clear
11:35 AM 33.8 °F 28.6 °F 10.4 °F 38% 30.47 in 10.0 mi North 5.8 mph - N/A   Clear
11:55 AM 35.6 °F 29.2 °F 10.4 °F 35% 30.45 in 10.0 mi NW 8.1 mph - N/A   Clear
12:15 PM 35.6 °F 28.6 °F 10.4 °F 35% 30.44 in 10.0 mi North 9.2 mph 17.3 mph N/A   Clear
12:35 PM 37.4 °F 32.1 °F 10.4 °F 33% 30.43 in 10.0 mi NE 6.9 mph - N/A   Clear
12:55 PM 35.6 °F 29.2 °F 8.6 °F 33% 30.42 in 10.0 mi North 8.1 mph - N/A   Clear
1:15 PM 37.4 °F 31.4 °F 8.6 °F 30% 30.42 in 10.0 mi NW 8.1 mph - N/A   Clear
1:35 PM 37.4 °F 33.8 °F 8.6 °F 30% 30.41 in 10.0 mi NE 4.6 mph - N/A   Clear
1:55 PM 39.2 °F 32.0 °F 6.8 °F 26% 30.40 in 10.0 mi NE 11.5 mph - N/A   Clear
2:35 PM 39.2 °F - 8.6 °F 28% 30.39 in 10.0 mi Calm Calm - N/A   Clear
2:55 PM 39.2 °F 37.0 °F 8.6 °F 28% 30.39 in 10.0 mi North 3.5 mph - N/A   Clear
3:15 PM 37.4 °F 33.8 °F 8.6 °F 30% 30.39 in 10.0 mi WSW 4.6 mph - N/A   Clear
3:35 PM 39.2 °F 35.9 °F 8.6 °F 28% 30.39 in 10.0 mi NNW 4.6 mph - N/A   Clear
3:55 PM 39.2 °F - 6.8 °F 26% 30.39 in 10.0 mi Calm Calm - N/A   Clear
5:35 PM 33.8 °F 29.6 °F 8.6 °F 35% 30.37 in 10.0 mi East 4.6 mph - N/A   Clear
5:55 PM 33.8 °F 30.8 °F 8.6 °F 35% 30.36 in 10.0 mi ENE 3.5 mph - N/A   Clear
6:15 PM 33.8 °F - 8.6 °F 35% 30.35 in 10.0 mi Calm Calm - N/A   Clear
6:35 PM 33.8 °F 29.6 °F 6.8 °F 32% 30.34 in 10.0 mi East 4.6 mph - N/A   Clear
6:55 PM 30.2 °F - 10.4 °F 44% 30.34 in 10.0 mi Calm Calm - N/A   Clear
7:15 PM 30.2 °F - 12.2 °F 47% 30.33 in 10.0 mi Calm Calm - N/A   Clear
7:35 PM 30.2 °F - 10.4 °F 44% 30.32 in 10.0 mi Calm Calm - N/A   Clear
7:55 PM 28.4 °F - 12.2 °F 51% 30.32 in 10.0 mi Calm Calm - N/A   Clear
8:15 PM 26.6 °F - 15.8 °F 64% 30.31 in 10.0 mi Calm Calm - N/A   Clear
8:35 PM 26.6 °F - 15.8 °F 64% 30.31 in 10.0 mi Calm Calm - N/A   Clear
8:55 PM 26.6 °F - 12.2 °F 55% 30.30 in 10.0 mi Calm Calm - N/A   Clear
9:15 PM 26.6 °F - 12.2 °F 55% 30.30 in 10.0 mi Calm Calm - N/A   Clear
9:35 PM 26.6 °F - 12.2 °F 55% 30.30 in 10.0 mi Calm Calm - N/A   Clear
9:55 PM 26.6 °F - 12.2 °F 55% 30.29 in 10.0 mi Calm Calm - N/A   Clear
10:15 PM 24.8 °F - 15.8 °F 69% 30.29 in 10.0 mi Calm Calm - N/A   Clear
10:35 PM 24.8 °F - 15.8 °F 69% 30.28 in 10.0 mi Calm Calm - N/A   Clear
10:55 PM 24.8 °F - 15.8 °F 69% 30.28 in 10.0 mi Calm Calm - N/A   Clear
11:15 PM 24.8 °F - 14.0 °F 64% 30.28 in 10.0 mi Calm Calm - N/A   Clear
11:35 PM 26.6 °F - 12.2 °F 55% 30.27 in 10.0 mi Calm Calm - N/A   Clear